DateTimeUTC,F1_A11,F1_S11,BsB_S11,BsG_S11,BsR_S11,BbsB_S11,BbsG_S11,BbsR_S11,BaB_A11,BaG_A11,BaR_A11,Tu_S11,T_S11,Uu_S11,U_S11,P_S11,T1_A11
2021-05-26T14:00:00Z,00000200,20000000,,,,,,,0000.36,0000.56,0000.31,17.5,23.9,11.3,07.6,0675.9,30.9
2021-05-26T14:01:00Z,00000200,20000000,,,,,,,0000.09,-000.34,0000.13,17.5,23.9,11.3,07.6,0676.0,30.8
2021-05-26T14:02:00Z,00000200,20000000,,,,,,,-000.27,0000.51,0000.07,17.5,23.9,11.3,07.6,0676.0,30.8
2021-05-26T14:03:00Z,00000200,60000000,,,,,,,0000.44,0000.21,0000.51,17.5,23.9,11.3,07.6,0676.0,30.8
2021-05-26T14:04:00Z,00000200,40000000,0006.86,0004.63,0003.52,0000.92,0000.50,0000.45,0000.19,0000.07,0000.66,17.6,23.8,11.5,07.8,0677.0,30.8
2021-05-26T14:05:00Z,00000200,00000000,0005.91,0004.63,0003.09,0000.47,0000.58,0000.19,0000.73,0000.70,0000.65,17.6,23.7,11.5,07.9,0677.2,30.9
2021-05-26T14:06:00Z,00000200,00000000,0006.60,0005.01,0003.41,0000.76,0000.53,0000.15,-000.22,-000.02,0000.17,17.6,23.7,11.6,08.0,0677.1,30.9
2021-05-26T14:07:00Z,00000200,00000000,0005.62,0004.96,0003.47,0000.80,0000.43,0000.52,0000.48,0000.80,0000.41,17.6,23.7,11.7,08.0,0677.1,30.9
2021-05-26T14:08:00Z,00000200,00000000,0006.53,0004.73,0003.20,0000.96,0000.27,0000.40,0000.11,0000.19,0000.59,17.6,23.7,11.7,08.0,0677.2,30.8
2021-05-26T14:09:00Z,00000200,00000000,0006.71,0005.04,0003.78,0000.61,0000.43,0000.33,-000.16,-000.18,0000.20,17.6,23.7,11.8,08.1,0677.2,30.8
2021-05-26T14:10:00Z,00000200,00000000,0007.37,0004.84,0003.35,0000.37,0000.43,0000.27,0000.63,0000.32,0000.34,17.6,23.7,11.7,08.0,0677.3,30.8
2021-05-26T14:11:00Z,00000200,00000000,0006.78,0004.78,0003.37,0000.88,0000.71,0000.21,-000.39,0000.21,0000.41,17.6,23.7,11.6,08.0,0677.2,30.8
2021-05-26T14:12:00Z,00000200,00000000,0006.95,0004.76,0003.02,0000.63,0000.44,0000.69,0000.34,0000.01,0000.15,17.6,23.7,11.7,08.0,0677.2,30.8
2021-05-26T14:13:00Z,00000200,00000000,0007.50,0004.84,0003.52,0000.68,0000.51,0000.34,0000.14,0000.87,0001.01,17.6,23.7,11.7,08.0,0677.2,30.8
2021-05-26T14:14:00Z,00000200,00000000,0006.60,0004.84,0003.47,0000.90,0000.47,0000.42,0000.42,-000.20,0000.05,17.6,23.7,11.7,08.1,0677.2,30.8
2021-05-26T14:15:00Z,00000200,00000000,0006.84,0004.89,0003.51,0000.43,0000.45,0000.31,-000.03,0000.40,0000.11,17.6,23.7,11.7,08.0,0677.3,30.8
2021-05-26T14:16:00Z,00000200,00000000,0006.63,0005.54,0003.27,0000.56,0000.41,0000.41,0000.59,-000.18,0000.68,17.6,23.7,11.7,08.1,0677.3,30.9
2021-05-26T14:17:00Z,00000200,00000000,0007.10,0005.31,0003.41,0000.47,0000.49,0000.36,-000.04,0000.87,0000.21,17.6,23.7,11.7,08.1,0677.3,30.9
2021-05-26T14:18:00Z,00000200,00000000,0007.53,0005.31,0003.29,0001.10,0000.27,0000.08,0000.05,-000.09,0000.50,17.7,23.7,11.7,08.1,0677.2,30.9
2021-05-26T14:19:00Z,00000200,00000000,0007.01,0005.05,0003.66,0000.91,0000.35,0000.36,0000.58,0000.53,0000.77,17.7,23.7,11.8,08.1,0677.4,30.9
2021-05-26T14:20:00Z,00000200,00000000,0006.68,0005.73,0003.79,0000.73,0000.55,0000.17,0000.29,0000.46,0000.39,17.7,23.7,11.9,08.2,0677.3,30.8
2021-05-26T14:21:00Z,00000200,00000000,0007.31,0004.86,0003.49,0000.53,0000.49,0000.54,-000.02,-000.02,0000.06,17.7,23.7,11.8,08.1,0677.2,30.8
2021-05-26T14:22:00Z,00000200,00000000,0007.22,0005.01,0003.78,0000.71,0000.62,0000.18,-000.34,0000.64,0000.58,17.7,23.8,11.8,08.1,0677.2,30.9
2021-05-26T14:23:00Z,00000200,00000000,0007.01,0005.31,0003.47,0000.42,0000.24,0000.50,0000.41,-000.09,0000.73,17.7,23.8,11.8,08.1,0677.2,30.9
2021-05-26T14:24:00Z,00000200,00000000,0007.14,0005.27,0003.55,0000.88,0000.77,0000.24,-000.01,0000.20,-000.06,17.7,23.8,11.8,08.1,0677.3,30.9
2021-05-26T14:25:00Z,00000200,00000000,0007.00,0005.48,0003.65,0000.76,0000.55,0000.22,0000.37,0000.68,0000.60,17.7,23.8,11.8,08.2,0677.3,30.9
2021-05-26T14:26:00Z,00000200,00000000,0006.90,0005.28,0003.78,0000.91,0000.54,0000.54,0000.51,0000.01,0000.78,17.7,23.8,11.9,08.2,0677.3,30.9
2021-05-26T14:27:00Z,00000200,00000000,0006.50,0005.06,0003.27,0000.52,0000.47,0000.40,0000.14,0000.54,0000.20,17.7,23.8,12.0,08.3,0677.3,30.8
2021-05-26T14:28:00Z,00000200,00000000,0006.41,0005.01,0003.54,0000.76,0000.43,0000.16,0000.30,0000.37,0000.77,17.7,23.8,12.0,08.3,0677.3,30.9
2021-05-26T14:29:00Z,00000200,00000000,0006.02,0004.75,0003.53,0000.82,0000.45,0000.27,0000.21,-000.21,0000.33,17.7,23.8,12.0,08.3,0677.2,30.9
2021-05-26T14:30:00Z,00000200,00000000,0006.92,0004.95,0003.34,0000.67,0000.49,0000.68,-000.11,0000.05,0000.23,17.7,23.8,12.1,08.3,0677.2,30.9
2021-05-26T14:31:00Z,00000200,00000000,0006.99,0004.87,0003.42,0000.21,0000.58,0000.14,0000.65,0000.82,0000.72,17.7,23.8,12.1,08.4,0677.3,30.9
2021-05-26T14:32:00Z,00000200,00000000,0006.05,0004.68,0003.25,0000.68,0000.35,0000.60,0000.25,0000.64,0000.52,17.7,23.8,12.2,08.4,0677.3,30.9
2021-05-26T14:33:00Z,00000200,00000000,0005.86,0005.02,0003.18,0000.80,0000.64,0000.28,-000.07,-000.11,0000.28,17.7,23.8,12.3,08.5,0677.3,30.8
2021-05-26T14:34:00Z,00000200,00000000,0006.74,0004.66,0003.19,0000.84,0000.36,0000.30,0000.57,0000.53,0000.58,17.8,23.8,12.4,08.6,0677.2,30.9
2021-05-26T14:35:00Z,00000200,00000000,0006.45,0004.83,0003.21,0000.59,0000.29,0000.51,-000.26,0000.43,0000.27,17.8,23.8,12.4,08.6,0677.3,30.9
2021-05-26T14:36:00Z,00000200,00000000,0006.97,0004.56,0003.21,-000.00,0000.32,-000.07,0000.82,0000.12,0000.75,17.8,23.8,12.5,08.6,0677.3,30.9
2021-05-26T14:37:00Z,00000200,00000000,0006.05,0004.45,0002.96,0000.62,0000.41,0000.24,0000.02,0000.29,0000.36,17.8,23.8,12.6,08.7,0677.3,30.9
2021-05-26T14:38:00Z,00000200,00000000,0006.65,0004.49,0003.26,0000.68,0000.56,0000.44,0000.06,0000.31,0000.65,17.8,23.8,12.6,08.7,0677.2,30.9
2021-05-26T14:39:00Z,00000200,00000000,0006.06,0004.30,0002.95,0000.37,0000.36,0000.25,0000.37,0000.47,-000.05,17.8,23.8,12.6,08.7,0677.2,30.9
2021-05-26T14:40:00Z,00000200,00000000,0006.08,0004.57,0002.96,0000.71,0000.34,0000.31,0000.00,-000.10,0000.78,17.8,23.8,12.6,08.7,0677.2,30.9
2021-05-26T14:41:00Z,00000200,00000000,0005.83,0004.38,0003.10,0000.15,0000.33,0000.28,0000.25,0000.24,-000.08,17.8,23.8,12.6,08.7,0677.3,30.9
2021-05-26T14:42:00Z,00000200,00000000,0005.88,0004.14,0003.30,0000.62,0000.45,0000.51,0000.51,0000.65,0001.24,17.8,23.8,12.7,08.8,0677.3,30.9
2021-05-26T14:43:00Z,00000200,00000000,0006.18,0004.64,0003.21,0000.86,0000.48,0000.45,-000.08,0000.26,0000.33,17.8,23.8,12.8,08.9,0677.3,30.9
2021-05-26T14:44:00Z,00000200,00000000,0006.38,0004.35,0003.03,0000.72,0000.31,0000.55,0000.27,0000.15,0000.53,17.8,23.8,12.8,08.8,0677.3,30.9
2021-05-26T14:45:00Z,00000200,00000000,0005.72,0003.91,0002.88,0000.14,0000.10,0000.19,-000.06,0000.21,0000.24,17.8,23.8,12.7,08.8,0677.2,30.9
2021-05-26T14:46:00Z,00000200,00000000,0005.87,0004.16,0003.28,0000.21,0000.46,0000.40,0000.20,-000.31,-000.23,17.9,23.8,12.7,08.8,0677.2,30.9
2021-05-26T14:47:00Z,00000200,00000000,0005.82,0004.02,0002.59,0001.00,0000.63,0000.04,0000.47,0001.08,0001.04,17.9,23.8,12.7,08.8,0677.1,30.9
2021-05-26T14:48:00Z,00000200,00000000,0005.49,0004.30,0002.98,0000.64,0000.43,0000.53,0000.28,0000.37,0000.65,17.9,23.9,12.9,08.9,0677.2,30.9
2021-05-26T14:49:00Z,00000200,00000000,0006.29,0004.56,0003.26,0000.85,0000.57,0000.44,0000.24,0000.22,0000.23,17.9,23.9,13.0,09.0,0677.3,30.9
2021-05-26T14:50:00Z,00000200,00000000,0005.94,0003.92,0002.88,0000.71,0000.63,0000.12,0000.04,0000.04,0000.25,17.9,23.9,13.0,09.0,0677.2,30.9
2021-05-26T14:51:00Z,00000200,00000000,0005.44,0004.10,0002.93,0000.96,0000.69,0000.23,0000.57,0000.39,0000.77,17.9,23.9,12.9,09.0,0677.3,30.9
2021-05-26T14:52:00Z,00000200,00000000,0005.63,0003.84,0002.74,0000.29,0000.42,0000.01,0000.15,0000.00,0000.06,17.9,23.9,12.9,08.9,0677.4,30.9
2021-05-26T14:53:00Z,00000200,00000000,0005.00,0004.34,0003.24,0000.26,0000.27,0000.06,-000.03,0000.32,0000.18,17.9,23.9,12.9,09.0,0677.4,30.9
2021-05-26T14:54:00Z,00000200,00000000,0005.37,0003.70,0002.83,0000.77,0000.28,0000.08,-000.01,0000.18,0000.52,17.9,23.9,12.9,08.9,0677.3,30.9
2021-05-26T14:55:00Z,00000200,00000000,0005.09,0003.95,0002.62,0000.41,0000.37,0000.32,0000.34,0000.39,0000.50,17.9,23.9,12.9,09.0,0677.3,30.9
2021-05-26T14:56:00Z,00000200,00000000,0005.60,0003.77,0002.53,0000.33,0000.42,0000.13,0000.07,0000.03,-000.08,18.0,23.9,12.9,09.0,0677.3,30.9
2021-05-26T14:57:00Z,00000200,40000000,,,,,,,-000.62,-000.37,0000.00,18.0,23.9,12.8,08.9,0676.8,30.9
2021-05-26T14:58:00Z,00000200,60000000,,,,,,,0000.25,-000.00,0000.23,17.8,24.0,12.8,08.7,0676.4,30.9
2021-05-26T14:59:00Z,00000200,20000000,,,,,,,-000.13,0000.36,0000.08,17.8,24.1,12.8,08.7,0676.4,30.9
